Wind_Speed
2 2 1 1 1 1 2 3 3 4 3 3 4 5 5 5 5 6 6 6 6 6 6 6 6 6 6 6 6 5 5 5 5 6 6 6 6 6 6 5 5 5 5 4 4 3 3 4 4
2 1 1 1 1 1 2 3 4 4 4 4 5 5 6 6 6 6 6 6 6 6 6 6 7 7 7 7 7 6 6 6 6 7 7 7 7 7 6 6 6 5 4 4 4 4 4 5 6
2 2 1 1 1 2 2 4 4 4 4 4 4 5 5 6 6 6 6 6 6 6 7 7 7 7 7 7 7 7 7 7 7 7 7 7 7 7 7 7 7 6 6 5 4 5 6 6 7
3 3 2 2 2 3 4 4 4 5 4 4 5 5 5 5 6 6 6 6 6 7 7 7 7 7 7 7 6 6 6 7 7 7 7 7 7 8 8 8 8 8 7 6 5 5 6 6 7
3 3 3 2 3 4 4 4 5 5 5 5 5 5 5 5 6 6 6 6 6 6 6 6 7 7 7 7 6 7 7 7 7 8 8 7 7 8 9 9 9 8 8 8 7 7 6 6 6
2 3 2 3 4 4 5 5 6 6 5 6 6 6 5 6 6 7 7 7 7 6 6 7 7 7 7 7 7 7 8 8 8 8 8 8 9 9 9 9 9 9 9 8 8 8 8 6 6
3 3 3 4 5 5 5 6 6 6 6 6 6 6 6 7 7 7 7 7 7 7 7 7 7 7 7 8 8 8 8 8 8 8 8 9 9 9 10 10 10 10 10 10 9 8 9 9 8
4 4 4 5 6 5 6 6 6 7 7 8 7 7 7 7 8 8 8 8 8 8 8 8 8 8 8 8 8 8 8 9 9 9 9 9 9 9 10 10 10 10 10 10 10 10 9 9 9
4 5 5 5 6 6 6 6 7 7 8 8 8 8 8 8 8 9 9 9 9 9 9 8 8 8 9 9 9 9 9 9 10 10 10 10 9 9 9 9 10 10 10 11 10 10 9 9 9
5 5 5 6 6 6 6 7 8 7 7 8 8 9 9 9 9 9 9 9 9 10 9 9 9 9 9 9 9 9 10 10 10 10 10 10 9 9 9 9 9 9 9 10 10 11 10 10 9
5 5 6 6 6 6 6 7 8 8 8 8 8 9 9 9 10 9 9 9 10 10 10 10 10 10 10 10 10 10 10 10 10 10 10 10 10 10 10 9 9 9 9 9 10 10 10 10 10
5 6 6 7 7 7 7 7 7 8 8 8 8 9 9 9 10 9 9 10 10 10 10 10 10 10 11 11 11 11 10 10 11 10 10 10 10 11 11 10 9 9 9 9 9 9 10 10 11
6 6 7 7 7 7 8 8 7 8 8 8 8 8 9 9 10 9 10 10 10 10 10 10 10 10 11 11 11 11 11 11 11 11 10 10 10 10 10 10 10 10 10 10 9 10 10 10 10
6 7 7 7 7 7 8 8 8 8 9 9 9 9 9 9 10 10 10 10 10 10 10 10 10 11 11 11 11 11 11 11 10 10 10 10 9 9 9 9 9 9 10 10 10 10 10 10 10
7 7 7 7 8 8 9 9 9 9 10 10 9 9 9 9 10 10 10 10 10 10 10 10 10 10 11 11 11 11 11 11 11 11 10 10 9 9 8 8 9 9 9 9 9 9 10 10 10
7 7 8 8 8 9 9 10 9 10 10 10 10 10 10 9 10 10 11 10 10 10 10 10 10 10 10 11 11 10 10 10 10 10 10 10 9 9 9 8 8 8 9 8 9 10 10 10 10
8 8 8 9 9 10 10 10 11 10 10 10 10 10 10 10 10 10 10 10 10 10 10 10 11 11 11 11 11 11 10 10 10 10 10 9 9 9 8 8 8 8 8 8 9 9 10 10 10
9 9 9 9 10 10 11 10 11 11 11 11 11 10 10 10 10 10 10 10 10 10 10 11 11 10 11 11 11 10 10 10 10 10 9 9 9 8 8 8 8 8 8 8 9 9 9 9 9
10 10 10 10 10 11 12 12 11 11 11 11 11 11 10 10 10 10 10 10 10 10 10 10 10 10 10 11 11 10 9 10 10 9 9 9 8 8 8 8 8 8 8 9 9 9 9 9 9
11 11 11 11 12 12 12 12 12 11 12 12 11 11 11 11 10 10 11 11 11 11 11 10 10 10 10 10 10 9 9 9 8 8 8 8 8 7 7 7 8 8 8 8 8 8 8 8 9
12 12 12 12 12 12 12 13 13 12 12 12 11 11 11 12 11 11 11 12 11 11 11 10 10 10 10 9 9 9 8 8 8 7 8 8 7 7 7 7 7 8 8 8 8 8 7 8 8
13 12 13 13 12 12 12 14 14 14 13 12 13 12 12 12 12 12 12 12 11 10 10 10 10 10 10 9 9 9 8 8 7 7 8 7 7 7 7 7 8 8 8 8 8 8 7 8 8
13 13 13 13 13 13 12 13 15 15 15 13 13 13 13 13 13 13 13 12 11 11 11 10 10 10 10 9 9 9 9 8 8 7 7 7 7 7 7 7 8 8 8 8 8 8 8 8 8
13 13 12 12 13 13 13 14 16 16 16 15 14 14 13 13 13 13 13 13 12 12 11 11 10 10 10 9 9 9 9 8 8 7 8 8 8 8 8 8 8 8 8 8 8 8 8 9 9
14 13 12 12 12 13 14 16 18 17 17 16 15 15 14 14 14 14 14 13 12 12 11 11 10 10 10 10 10 9 9 9 8 8 9 8 8 8 8 8 8 9 8 9 9 9 9 9 9
15 14 13 13 12 13 14 16 17 16 17 16 16 15 15 15 14 14 14 14 13 13 12 11 11 11 11 11 10 11 11 10 10 9 9 9 9 9 8 8 8 8 9 9 9 10 10 10 10
16 15 14 15 15 15 15 17 18 16 16 16 16 16 16 15 15 15 14 14 14 14 13 12 12 12 12 12 11 12 12 11 11 10 10 11 11 10 10 9 9 9 9 10 10 10 10 10 10
16 16 16 17 17 17 17 18 20 18 16 17 18 18 18 17 16 16 16 16 15 15 15 14 14 14 14 13 13 12 12 12 12 12 12 12 12 12 11 11 11 10 10 10 10 10 10 10 9
17 17 18 19 19 19 18 19 19 19 19 19 19 19 19 19 19 19 18 16 16 16 16 16 15 15 15 14 14 14 14 14 14 14 14 13 13 13 12 11 11 11 11 11 11 10 10 10 10
18 19 20 20 20 20 21 22 21 22 22 21 21 20 20 20 20 20 19 18 17 17 17 17 17 17 16 16 15 15 15 15 15 15 15 14 14 14 13 13 13 12 12 12 11 10 10 10 10
Wind_Direction
358 8 22 0 356 356 346 335 336 335 320 305 300 299 302 306 304 304 303 302 303 302 303 302 296 295 295 296 292 289 285 288 290 295 292 288 288 286 287 282 276 280 276 271 267 253 243 227 215
327 331 348 315 310 4 344 331 338 333 319 305 300 299 305 308 307 303 303 302 303 304 306 306 301 296 293 291 288 287 290 299 300 297 291 289 289 286 283 280 282 285 286 280 272 256 247 239 234
288 294 293 289 291 314 322 325 327 327 312 302 301 306 310 314 312 302 304 304 304 306 308 309 305 299 297 292 289 291 293 296 297 298 292 288 289 290 287 281 279 277 278 275 272 264 258 247 237
273 278 276 283 302 295 303 308 313 317 313 309 304 307 311 313 313 307 307 309 309 307 307 309 310 304 300 296 292 293 292 291 291 293 293 290 289 290 288 283 281 278 274 271 271 261 259 255 245
269 272 267 279 288 290 300 309 314 315 316 312 308 307 307 313 313 312 309 310 312 310 306 306 308 306 303 299 293 291 294 294 290 290 290 289 288 286 285 281 282 281 277 275 272 261 252 248 245
281 284 275 281 292 294 297 303 310 311 311 311 309 304 306 309 307 308 309 308 310 310 305 303 304 305 302 298 294 291 292 293 290 289 291 291 288 285 282 283 280 280 276 273 274 265 256 257 252
289 291 289 281 286 292 300 299 300 304 303 303 303 304 304 304 302 303 305 305 306 306 303 302 302 302 300 298 294 292 295 295 294 293 291 291 291 287 283 280 280 280 276 271 268 264 259 257 254
281 282 282 284 285 289 298 300 298 299 302 301 299 301 300 300 300 301 303 303 302 303 303 301 300 301 300 299 296 295 297 298 296 294 289 289 290 289 287 283 280 279 275 270 268 266 261 261 259
276 277 281 286 282 283 291 297 298 299 302 302 299 301 298 298 299 301 302 303 302 300 300 301 301 303 303 301 300 300 301 300 297 297 291 289 289 289 287 286 282 279 275 271 268 266 259 266 261
270 276 281 283 285 283 288 293 296 297 300 300 301 301 302 302 303 302 303 304 305 301 299 300 302 303 305 306 306 303 302 300 298 293 292 288 285 285 288 288 286 285 281 271 267 267 265 267 259
275 279 282 284 285 286 292 295 296 298 300 302 303 302 301 301 301 302 304 305 305 302 300 297 300 302 302 305 308 307 305 301 299 296 292 289 287 287 285 288 287 286 284 278 269 267 269 270 266
280 283 285 288 285 288 297 301 301 301 302 303 303 300 301 302 302 303 303 304 305 305 300 300 298 300 300 303 305 307 307 304 302 299 295 292 289 292 287 286 285 284 286 282 275 273 272 272 273
283 283 286 290 289 289 295 298 301 303 304 303 301 299 300 302 303 304 304 305 305 305 301 301 300 299 300 301 302 303 305 306 301 299 295 293 292 293 291 287 283 284 285 284 279 278 276 275 276
288 286 286 291 292 290 292 297 302 304 302 300 301 301 301 302 304 305 307 307 308 307 303 302 303 302 301 302 302 302 303 306 302 298 295 292 292 294 291 285 282 281 282 282 281 278 278 278 276
285 286 288 291 294 294 293 297 302 304 301 301 301 301 302 303 304 307 309 310 311 311 308 306 305 304 302 302 304 304 304 303 301 298 293 291 290 291 290 285 283 282 281 280 280 279 279 278 276
288 287 288 290 292 292 293 299 301 303 303 301 300 301 302 303 304 306 308 310 310 310 310 307 306 307 306 305 307 307 306 304 302 299 296 292 289 288 286 286 286 287 281 278 279 281 279 279 278
288 291 292 292 293 294 296 300 302 302 304 304 302 300 300 302 304 306 307 308 310 309 308 306 305 306 307 307 307 307 307 305 303 300 298 294 291 289 286 287 285 285 285 282 281 282 278 278 278
277 280 285 289 293 296 297 296 298 302 302 300 297 297 298 300 301 305 307 306 308 307 306 307 307 307 308 307 307 308 308 307 304 301 297 297 293 290 287 284 284 285 283 284 283 282 279 280 277
276 278 281 284 288 292 295 295 297 300 300 297 295 294 296 298 299 302 305 306 307 308 307 308 308 308 308 306 306 307 306 305 303 300 296 297 296 292 290 288 285 287 286 286 284 281 278 278 275
271 272 274 279 284 287 289 290 293 297 299 298 295 294 294 294 297 300 301 303 304 304 304 307 308 308 307 307 305 306 307 306 304 303 300 298 295 294 295 291 286 287 290 291 289 286 282 281 274
269 273 273 276 280 283 287 287 288 293 295 294 293 291 291 292 295 300 302 302 302 301 302 304 306 306 306 307 307 306 306 308 306 302 298 297 296 293 294 294 294 294 294 295 295 289 285 283 280
272 272 274 275 277 283 287 290 292 292 291 292 292 290 289 290 291 294 297 300 300 301 302 302 302 303 304 307 308 306 307 309 307 302 298 297 296 293 293 293 293 293 294 296 297 293 289 285 283
273 272 274 274 276 278 282 286 289 292 293 294 293 291 289 288 289 291 295 297 299 299 300 299 300 300 300 302 300 303 307 310 308 305 300 299 299 297 293 294 292 292 293 295 298 295 294 289 286
272 272 274 275 278 284 286 283 283 287 293 295 293 292 290 288 287 288 291 293 294 295 297 297 298 298 299 299 299 301 304 308 308 305 301 298 298 299 296 295 293 294 294 294 296 295 296 294 289
272 272 274 279 282 285 284 281 281 286 288 290 291 291 290 288 286 285 287 288 290 292 293 293 294 294 295 294 295 297 298 299 302 305 304 301 301 299 298 297 299 296 293 294 295 292 294 294 291
272 268 266 269 272 276 280 278 284 287 287 285 286 287 289 287 284 282 282 283 284 286 288 289 289 292 292 290 292 293 292 290 292 296 300 301 299 298 295 297 299 297 293 293 294 292 291 292 288
272 267 264 263 265 269 275 279 281 280 281 281 283 283 283 281 282 280 280 280 281 282 283 283 284 287 289 288 288 290 290 289 288 291 294 296 296 293 290 292 297 296 295 294 293 292 291 291 287
271 270 266 263 265 264 268 274 278 279 277 278 280 282 279 278 279 280 279 277 277 279 281 280 283 283 282 283 285 286 286 285 286 289 290 292 293 290 288 289 290 291 293 295 294 295 294 293 290
271 271 270 269 265 265 265 269 274 276 276 277 279 280 278 277 277 278 278 279 278 278 279 279 279 282 281 279 281 281 282 283 284 286 287 288 288 288 285 286 287 289 290 290 291 291 295 294 290
269 270 269 268 267 266 265 268 272 273 277 277 277 278 277 275 274 275 275 276 276 275 276 276 277 279 279 278 279 279 280 279 281 282 283 285 286 285 282 283 285 287 289 289 289 287 291 292 289
Height
5870 5870 5870 5871 5871 5871 5870 5870 5869 5869 5869 5869 5869 5869 5869 5869 5870 5871 5869 5867 5867 5867 5866 5866 5866 5865 5865 5865 5865 5865 5865 5864 5864 5864 5864 5864 5864 5864 5864 5864 5864 5864 5864 5864 5864 5864 5863 5863 5864
5870 5870 5871 5871 5871 5870 5870 5869 5869 5869 5869 5868 5868 5869 5868 5868 5868 5868 5867 5867 5866 5866 5865 5865 5865 5865 5864 5864 5864 5864 5864 5864 5864 5863 5863 5863 5863 5863 5863 5863 5863 5863 5863 5863 5863 5863 5864 5864 5864
5869 5870 5871 5871 5870 5870 5870 5870 5869 5869 5868 5868 5868 5868 5868 5868 5868 5867 5866 5866 5866 5865 5865 5864 5864 5864 5863 5863 5863 5863 5863 5863 5863 5863 5862 5862 5862 5862 5862 5862 5862 5862 5863 5863 5863 5863 5863 5863 5864
5869 5870 5870 5870 5869 5870 5869 5869 5869 5868 5868 5868 5868 5868 5867 5867 5867 5866 5866 5865 5865 5865 5864 5864 5863 5863 5863 5862 5862 5862 5862 5862 5862 5861 5861 5861 5861 5861 5861 5861 5861 5861 5862 5862 5862 5862 5862 5862 5863
5868 5869 5869 5869 5869 5869 5869 5868 5868 5868 5868 5868 5868 5868 5867 5867 5866 5866 5865 5865 5865 5864 5863 5863 5862 5862 5862 5861 5861 5861 5861 5860 5860 5860 5860 5860 5860 5859 5859 5859 5860 5860 5860 5860 5860 5861 5861 5861 5861
5868 5868 5869 5868 5868 5868 5868 5868 5868 5867 5867 5867 5867 5867 5866 5866 5866 5865 5865 5864 5864 5863 5863 5862 5862 5861 5861 5860 5860 5860 5860 5859 5859 5859 5859 5858 5858 5858 5858 5858 5858 5858 5858 5859 5859 5859 5859 5860 5860
5868 5868 5868 5868 5868 5868 5868 5867 5867 5867 5867 5866 5866 5866 5866 5865 5865 5864 5864 5863 5863 5863 5862 5861 5861 5860 5860 5859 5859 5859 5858 5858 5858 5857 5857 5857 5857 5856 5856 5856 5856 5856 5856 5857 5857 5857 5857 5858 5858
5867 5868 5867 5867 5867 5867 5867 5867 5866 5866 5866 5866 5865 5865 5865 5864 5864 5863 5863 5862 5862 5861 5861 5860 5860 5859 5859 5858 5858 5857 5857 5857 5856 5856 5856 5855 5855 5855 5854 5854 5854 5854 5854 5854 5854 5855 5855 5856 5856
5867 5868 5866 5866 5866 5867 5866 5866 5866 5865 5865 5865 5864 5864 5864 5863 5863 5862 5862 5861 5861 5860 5860 5859 5859 5858 5857 5857 5856 5856 5856 5855 5855 5854 5854 5854 5853 5853 5852 5852 5852 5852 5852 5852 5852 5852 5853 5854 5854
5866 5866 5866 5866 5866 5866 5866 5865 5865 5865 5864 5864 5863 5863 5862 5862 5861 5861 5860 5860 5859 5859 5858 5858 5857 5857 5856 5856 5855 5855 5854 5853 5853 5853 5852 5852 5852 5851 5851 5851 5850 5850 5850 5850 5851 5851 5851 5851 5852
5865 5865 5865 5865 5865 5865 5865 5864 5864 5863 5863 5863 5862 5862 5861 5861 5860 5860 5859 5859 5858 5857 5857 5856 5856 5855 5855 5854 5854 5853 5853 5852 5851 5851 5850 5850 5850 5849 5849 5849 5848 5848 5848 5848 5849 5849 5849 5850 5850
5864 5864 5864 5864 5864 5864 5864 5863 5863 5862 5862 5862 5861 5861 5860 5860 5859 5858 5858 5857 5857 5856 5855 5855 5854 5854 5853 5853 5852 5852 5851 5850 5850 5849 5848 5848 5848 5847 5847 5847 5847 5847 5847 5847 5847 5847 5847 5848 5848
5863 5863 5863 5863 5863 5863 5863 5862 5862 5862 5861 5860 5860 5859 5859 5858 5858 5857 5856 5856 5855 5854 5854 5853 5852 5852 5852 5851 5851 5850 5849 5849 5848 5847 5847 5846 5846 5845 5845 5845 5845 5845 5845 5845 5845 5846 5846 5846 5846
5862 5862 5862 5862 5862 5862 5862 5861 5861 5861 5860 5859 5859 5858 5858 5857 5857 5856 5855 5854 5853 5853 5852 5851 5851 5850 5850 5849 5849 5848 5847 5847 5846 5845 5845 5844 5844 5843 5843 5843 5843 5843 5843 5843 5843 5844 5844 5844 5844
5861 5861 5861 5861 5861 5861 5861 5861 5860 5859 5858 5858 5857 5857 5856 5856 5855 5854 5854 5853 5852 5851 5851 5850 5849 5849 5848 5847 5847 5846 5846 5845 5844 5843 5843 5842 5842 5841 5841 5841 5841 5841 5841 5841 5841 5842 5842 5842 5842
5860 5860 5860 5860 5859 5859 5861 5859 5859 5858 5857 5856 5856 5856 5855 5854 5854 5853 5852 5852 5851 5850 5849 5849 5848 5847 5846 5846 5845 5844 5844 5843 5842 5841 5841 5840 5840 5840 5839 5840 5840 5840 5839 5839 5840 5840 5840 5840 5840
5858 5859 5858 5859 5858 5858 5858 5857 5857 5856 5856 5855 5855 5854 5853 5853 5853 5852 5851 5850 5849 5849 5848 5847 5846 5846 5845 5844 5843 5843 5842 5841 5840 5839 5839 5838 5838 5838 5838 5838 5838 5838 5838 5838 5838 5838 5838 5838 5838
5857 5857 5857 5857 5856 5856 5856 5855 5855 5855 5854 5854 5853 5852 5852 5852 5851 5850 5850 5849 5848 5847 5846 5846 5845 5844 5843 5842 5842 5841 5840 5839 5839 5838 5837 5837 5836 5836 5836 5836 5836 5836 5836 5836 5836 5836 5836 5836 5836
5855 5855 5855 5855 5855 5855 5854 5853 5853 5853 5852 5852 5851 5851 5850 5850 5850 5849 5848 5847 5847 5846 5845 5844 5843 5843 5842 5841 5840 5839 5839 5838 5837 5836 5836 5835 5835 5834 5834 5834 5834 5834 5834 5834 5834 5834 5834 5834 5834
5853 5853 5853 5853 5853 5853 5852 5851 5851 5851 5851 5850 5850 5849 5849 5848 5848 5847 5847 5846 5845 5844 5843 5843 5842 5841 5840 5839 5838 5838 5837 5836 5836 5835 5834 5834 5833 5833 5833 5833 5833 5833 5833 5833 5833 5832 5833 5833 5833
5850 5851 5851 5851 5850 5850 5850 5849 5849 5849 5849 5848 5848 5847 5847 5846 5846 5846 5845 5844 5843 5842 5842 5841 5840 5839 5839 5838 5837 5836 5836 5835 5834 5834 5833 5833 5832 5832 5832 5832 5832 5832 5831 5831 5831 5831 5831 5831 5831
5848 5848 5848 5848 5848 5847 5848 5847 5846 5846 5846 5846 5846 5845 5845 5844 5844 5843 5843 5842 5841 5841 5840 5839 5838 5838 5837 5837 5836 5835 5834 5834 5833 5832 5832 5831 5831 5831 5830 5830 5830 5830 5830 5830 5829 5829 5829 5829 5829
5845 5845 5845 5845 5844 5845 5845 5844 5845 5843 5843 5844 5843 5843 5842 5842 5841 5841 5841 5840 5839 5839 5838 5837 5836 5836 5835 5835 5834 5834 5833 5832 5832 5831 5830 5830 5829 5829 5829 5829 5829 5828 5828 5828 5828 5828 5827 5827 5827
5842 5842 5842 5842 5842 5842 5843 5842 5842 5840 5840 5841 5841 5840 5840 5839 5839 5838 5838 5838 5837 5837 5836 5835 5835 5834 5834 5833 5833 5832 5832 5831 5830 5830 5829 5828 5828 5828 5828 5827 5827 5827 5826 5826 5826 5826 5826 5825 5825
5839 5839 5839 5839 5839 5840 5840 5839 5839 5838 5838 5838 5838 5837 5837 5836 5836 5835 5835 5835 5835 5834 5834 5833 5832 5832 5831 5831 5831 5830 5830 5829 5829 5828 5828 5827 5827 5826 5826 5826 5825 5825 5825 5825 5824 5824 5824 5823 5823
5835 5836 5836 5837 5836 5837 5836 5835 5836 5835 5835 5835 5834 5834 5833 5833 5833 5832 5832 5832 5832 5832 5831 5831 5830 5830 5829 5829 5829 5828 5828 5827 5827 5827 5826 5826 5825 5825 5824 5824 5824 5824 5823 5823 5822 5822 5822 5821 5821
5831 5832 5832 5832 5832 5832 5833 5832 5832 5831 5831 5831 5831 5830 5830 5830 5829 5829 5828 5829 5829 5828 5828 5828 5827 5827 5827 5826 5826 5826 5825 5825 5825 5825 5824 5824 5823 5823 5823 5822 5822 5822 5821 5821 5820 5820 5819 5819 5819
5828 5828 5828 5828 5828 5828 5829 5829 5827 5826 5826 5827 5827 5827 5826 5826 5825 5825 5825 5825 5825 5825 5825 5825 5824 5824 5824 5823 5823 5823 5823 5822 5822 5822 5822 5821 5821 5821 5820 5820 5820 5819 5819 5818 5818 5817 5817 5817 5816
5824 5824 5823 5823 5823 5824 5824 5826 5823 5822 5822 5822 5822 5822 5822 5821 5821 5821 5821 5820 5821 5821 5821 5821 5821 5820 5820 5820 5820 5820 5819 5819 5819 5819 5818 5818 5818 5818 5818 5818 5817 5817 5816 5816 5816 5815 5815 5815 5814
5819 5819 5818 5819 5818 5818 5818 5821 5818 5818 5817 5816 5816 5817 5817 5816 5816 5816 5816 5816 5817 5817 5817 5817 5816 5816 5816 5816 5816 5816 5816 5816 5815 5815 5815 5815 5815 5815 5815 5815 5815 5814 5814 5814 5813 5813 5813 5812 5812